When you browse on this site, cookies collect data to enhance your experience and personalize the content and advertising you see.
Visit our Privacy Policy to learn more. By continuing to use the site, you agree to this use of cookies and data.

Hourly Weather Holhol

Today, 12 July, Sunday

Time Temperature Precipitation Wind Pressure Humidity
00:00 +36°C° 0 mm 3 mps 708 mmHg 26%
01:00 +36°C° 0 mm 4 mps 708 mmHg 26%
02:00 +36°C° 0 mm 4 mps 707 mmHg 27%
03:00 +35°C° 0 mm 3 mps 707 mmHg 29%
04:00 +35°C° 0 mm 4 mps 707 mmHg 30%
05:00 +35°C° 0 mm 4 mps 707 mmHg 32%
06:00 +34°C° 0 mm 5 mps 708 mmHg 33%
07:00 +36°C° 0 mm 6 mps 708 mmHg 30%
08:00 +38°C° 0 mm 8 mps 709 mmHg 28%
09:00 +39°C° 0 mm 9 mps 709 mmHg 25%
10:00 +41°C° 0 mm 8 mps 709 mmHg 22%
11:00 +43°C° 0 mm 7 mps 709 mmHg 18%
12:00 +45°C° 0 mm 6 mps 709 mmHg 15%
13:00 +45°C° 0 mm 5 mps 708 mmHg 15%
14:00 +44°C° 0 mm 4 mps 708 mmHg 15%
15:00 +44°C° 0 mm 4 mps 707 mmHg 15%
16:00 +43°C° 0 mm 4 mps 707 mmHg 16%
17:00 +43°C° 0 mm 4 mps 707 mmHg 18%
18:00 +42°C° 0 mm 4 mps 707 mmHg 20%
19:00 +40°C° 0 mm 4 mps 707 mmHg 24%
20:00 +38°C° 0 mm 4 mps 707 mmHg 27%
21:00 +37°C° 0 mm 4 mps 707 mmHg 31%
22:00 +36°C° 0 mm 4 mps 707 mmHg 31%
23:00 +36°C° 0 mm 4 mps 707 mmHg 31%

Tomorrow, 13 July, Monday

Time Temperature Precipitation Wind Pressure Humidity
00:00 +36°C° 0 mm 3 mps 708 mmHg 32%
01:00 +35°C° 0 mm 4 mps 707 mmHg 32%
02:00 +35°C° 0 mm 5 mps 707 mmHg 32%
03:00 +35°C° 0 mm 6 mps 706 mmHg 32%
04:00 +34°C° 0 mm 7 mps 707 mmHg 33%
05:00 +34°C° 0 mm 8 mps 707 mmHg 34%
06:00 +34°C° 0 mm 8 mps 708 mmHg 35%
07:00 +35°C° 0 mm 9 mps 708 mmHg 32%
08:00 +37°C° 0 mm 9 mps 708 mmHg 30%
09:00 +39°C° 0 mm 10 mps 708 mmHg 28%
10:00 +40°C° 0 mm 9 mps 708 mmHg 25%
11:00 +41°C° 0 mm 7 mps 708 mmHg 23%
12:00 +44°C° 0 mm 6 mps 708 mmHg 21%
13:00 +43°C° 0 mm 5 mps 708 mmHg 20%
14:00 +43°C° 0 mm 5 mps 707 mmHg 19%
15:00 +45°C° 0 mm 5 mps 706 mmHg 19%
16:00 +42°C° 0 mm 5 mps 706 mmHg 23%
17:00 +41°C° 0 mm 5 mps 706 mmHg 27%
18:00 +39°C° 0 mm 6 mps 706 mmHg 31%
19:00 +37°C° 0 mm 5 mps 706 mmHg 33%
20:00 +36°C° 0 mm 4 mps 707 mmHg 36%
21:00 +36°C° 0 mm 2 mps 707 mmHg 38%
22:00 +35°C° 0 mm 2 mps 707 mmHg 38%
23:00 +35°C° 0 mm 2 mps 708 mmHg 38%

Day after tomorrow, 14 July, Tuesday

Time Temperature Precipitation Wind Pressure Humidity
00:00 +35°C° 0 mm 2 mps 708 mmHg 39%
01:00 +34°C° 0 mm 2 mps 708 mmHg 38%
02:00 +34°C° 0 mm 2 mps 708 mmHg 38%
03:00 +34°C° 0 mm 3 mps 707 mmHg 37%
04:00 +33°C° 0 mm 4 mps 708 mmHg 39%
05:00 +33°C° 0 mm 6 mps 708 mmHg 42%
06:00 +33°C° 0 mm 7 mps 709 mmHg 44%
07:00 +34°C° 0 mm 8 mps 709 mmHg 41%
08:00 +35°C° 0 mm 9 mps 710 mmHg 37%
09:00 +37°C° 0 mm 10 mps 710 mmHg 34%
10:00 +39°C° 0 mm 8 mps 710 mmHg 29%
11:00 +40°C° 0 mm 7 mps 710 mmHg 25%
12:00 +42°C° 0 mm 5 mps 710 mmHg 21%
13:00 +42°C° 0 mm 5 mps 709 mmHg 20%
14:00 +43°C° 0 mm 4 mps 708 mmHg 20%
15:00 +43°C° 0 mm 4 mps 707 mmHg 19%
16:00 +42°C° 0 mm 4 mps 707 mmHg 21%
17:00 +41°C° 0 mm 4 mps 707 mmHg 22%
18:00 +40°C° 0 mm 5 mps 707 mmHg 24%
19:00 +39°C° 0 mm 3 mps 707 mmHg 26%
20:00 +38°C° 0 mm 2 mps 708 mmHg 28%
21:00 +36°C° 0 mm 1 mps 708 mmHg 30%
22:00 +36°C° 0 mm 2 mps 708 mmHg 31%
23:00 +36°C° 0 mm 2 mps 708 mmHg 32%

15 July, Wednesday

Time Temperature Precipitation Wind Pressure Humidity
00:00 +35°C° 0 mm 2 mps 708 mmHg 34%
01:00 +35°C° 0 mm 2 mps 708 mmHg 34%
02:00 +34°C° 0 mm 1 mps 708 mmHg 35%
03:00 +33°C° 0 mm 1 mps 707 mmHg 36%
04:00 +33°C° 0 mm 1 mps 708 mmHg 36%
05:00 +34°C° 0 mm 2 mps 709 mmHg 36%
06:00 +34°C° 0 mm 2 mps 709 mmHg 37%
07:00 +35°C° 0 mm 4 mps 710 mmHg 34%
08:00 +36°C° 0 mm 6 mps 710 mmHg 31%
09:00 +39°C° 0 mm 8 mps 711 mmHg 28%
10:00 +40°C° 0 mm 7 mps 710 mmHg 25%
11:00 +41°C° 0 mm 6 mps 710 mmHg 21%
12:00 +43°C° 0 mm 5 mps 710 mmHg 18%
13:00 +43°C° 0 mm 5 mps 709 mmHg 17%
14:00 +44°C° 0 mm 4 mps 709 mmHg 17%
15:00 +44°C° 0 mm 4 mps 708 mmHg 16%
16:00 +43°C° 0 mm 4 mps 708 mmHg 18%
17:00 +42°C° 0 mm 4 mps 707 mmHg 21%
18:00 +41°C° 0 mm 4 mps 707 mmHg 23%
19:00 +39°C° 0 mm 3 mps 708 mmHg 25%
20:00 +38°C° 0 mm 3 mps 708 mmHg 28%
21:00 +37°C° 0 mm 2 mps 709 mmHg 30%
22:00 +36°C° 0 mm 2 mps 709 mmHg 30%
23:00 +36°C° 0 mm 2 mps 709 mmHg 31%

16 July, Thursday

Time Temperature Precipitation Wind Pressure Humidity
00:00 +36°C° 0 mm 2 mps 709 mmHg 32%
01:00 +36°C° 0 mm 2 mps 708 mmHg 31%
02:00 +35°C° 0 mm 2 mps 708 mmHg 31%
03:00 +35°C° 0 mm 2 mps 708 mmHg 31%
04:00 +35°C° 0 mm 4 mps 708 mmHg 34%
05:00 +34°C° 0 mm 6 mps 709 mmHg 37%
06:00 +33°C° 0 mm 8 mps 709 mmHg 40%
07:00 +34°C° 0 mm 8 mps 709 mmHg 38%
08:00 +35°C° 0 mm 9 mps 710 mmHg 36%
09:00 +37°C° 0 mm 9 mps 710 mmHg 34%
10:00 +38°C° 0 mm 9 mps 710 mmHg 30%
11:00 +40°C° 0 mm 8 mps 709 mmHg 27%
12:00 +41°C° 0 mm 7 mps 709 mmHg 24%
13:00 +41°C° 0 mm 6 mps 709 mmHg 23%
14:00 +41°C° 0 mm 5 mps 708 mmHg 23%
15:00 +41°C° 0 mm 4 mps 708 mmHg 22%
16:00 +40°C° 0.1 mm 5 mps 708 mmHg 25%
17:00 +38°C° 0.1 mm 6 mps 707 mmHg 29%
18:00 +36°C° 0.1 mm 7 mps 707 mmHg 32%
19:00 +36°C° 0 mm 6 mps 708 mmHg 32%
20:00 +35°C° 0 mm 6 mps 709 mmHg 33%
21:00 +35°C° 0 mm 5 mps 709 mmHg 33%
22:00 +35°C° 0 mm 6 mps 709 mmHg 34%
23:00 +34°C° 0 mm 6 mps 709 mmHg 35%

17 July, Friday

Time Temperature Precipitation Wind Pressure Humidity
00:00 +34°C° 0 mm 6 mps 709 mmHg 36%
01:00 +34°C° 0 mm 7 mps 708 mmHg 36%
02:00 +33°C° 0 mm 8 mps 708 mmHg 36%
03:00 +33°C° 0 mm 9 mps 708 mmHg 36%
04:00 +32°C° 0 mm 10 mps 708 mmHg 39%
05:00 +32°C° 0 mm 10 mps 709 mmHg 41%
06:00 +31°C° 0 mm 11 mps 709 mmHg 44%
07:00 +32°C° 0 mm 11 mps 710 mmHg 40%
08:00 +34°C° 0 mm 10 mps 710 mmHg 37%
09:00 +36°C° 0 mm 10 mps 710 mmHg 34%
10:00 +37°C° 0 mm 9 mps 710 mmHg 30%
11:00 +39°C° 0 mm 9 mps 710 mmHg 26%
12:00 +41°C° 0 mm 8 mps 709 mmHg 23%
13:00 +40°C° 0 mm 8 mps 709 mmHg 23%
14:00 +40°C° 0 mm 7 mps 708 mmHg 24%
15:00 +40°C° 0 mm 7 mps 708 mmHg 24%
16:00 +39°C° 0.1 mm 7 mps 708 mmHg 25%
17:00 +39°C° 0.1 mm 6 mps 708 mmHg 26%
18:00 +38°C° 0.1 mm 6 mps 708 mmHg 27%
19:00 +38°C° 0.3 mm 6 mps 708 mmHg 29%
20:00 +36°C° 0.3 mm 6 mps 708 mmHg 31%
21:00 +35°C° 0.3 mm 6 mps 709 mmHg 34%
22:00 +35°C° 0 mm 6 mps 708 mmHg 34%
23:00 +35°C° 0 mm 6 mps 708 mmHg 34%
Show more